DW6399 Weather Reports


time (UTC)temp
C
wind
direction
speed
KPH
gust
KPH
rain 1hr
cm
rain 24hr
cm
rain mn
cm
humidity
%
barometer
mb
20260504081804 10 158 9.7 17.7 0.00 0.00 0.00 42 1001.4
20260504080904 9 157 11.3 20.9 0.00 0.00 0.00 41 1001.5
20260504050004 3 151 4.8 9.7 0.00 0.00 0.00 67 1003.6
20260504045404 3 151 4.8 11.3 0.00 0.00 0.00 67 1003.8
20260504044504 3 168 4.8 11.3 0.00 0.00 0.00 69 1003.3
20260504043604 2 152 3.2 8.0 0.00 0.00 0.00 70 1003.8
20260504042704 1 157 4.8 9.7 0.00 0.00 0.00 71 1004.0
20260504041804 0 169 4.8 9.7 0.00 0.00 0.00 73 1003.8
20260504040904 0 174 3.2 8.0 0.00 0.00 0.00 76 1003.6
20260504040004 -1 174 0.0 4.8 0.00 0.00 0.00 79 1003.5
20260504035404 -1 174 1.6 4.8 0.00 0.00 0.00 79 1002.8
20260504034504 -2 174 1.6 4.8 0.00 0.00 0.00 79 1005.2
20260504033604 -2 174 1.6 6.4 0.00 0.00 0.00 79 1004.5
20260504032725 -2 174 1.6 6.4 0.00 0.00 0.00 79 1004.4
20260504031804 -2 174 0.0 6.4 0.00 0.00 0.00 80 1004.4
20260504030904 -2 171 0.0 1.6 0.00 0.00 0.00 81 1004.4
20260504030004 -2 171 1.6 6.4 0.00 0.00 0.00 81 1004.5
20260504025404 -2 175 1.6 9.7 0.00 0.00 0.00 82 1004.4
20260504024504 -2 175 3.2 11.3 0.00 0.00 0.00 82 1004.5
20260504023604 -3 165 0.0 3.2 0.00 0.00 0.00 83 1004.5
20260504022704 -3 211 1.6 8.0 0.00 0.00 0.00 83 1004.5
20260504021804 -3 307 0.0 6.4 0.00 0.00 0.00 82 1004.5
20260504020904 -3 0 0.0 0.0 0.00 0.00 0.00 83 1004.6
20260504015425 -3 307 0.0 1.6 0.00 0.00 0.00 83 1004.7
20260504014504 -3 307 0.0 1.6 0.00 0.00 0.00 83 1004.8
20260504013604 -3 0 0.0 0.0 0.00 0.00 0.00 83 1004.8
20260504012725 -3 0 0.0 0.0 0.00 0.00 0.00 83 1004.9
20260504011804 -3 0 0.0 0.0 0.00 0.00 0.00 83 1004.9
20260504010904 -3 0 0.0 0.0 0.00 0.00 0.00 83 1004.9
20260504010004 -3 0 0.0 0.0 0.00 0.00 0.00 83 1004.8
20260504005404 -3 0 0.0 0.0 0.00 0.00 0.00 82 1004.9
20260504004504 -3 0 0.0 0.0 0.00 0.00 0.00 81 1004.9
20260504003604 -2 0 0.0 0.0 0.00 0.00 0.00 81 1005.0
20260504002704 -2 0 0.0 0.0 0.00 0.00 0.00 80 1005.0
20260504001804 -2 0 0.0 0.0 0.00 0.00 0.00 79 1005.1
20260504000904 -2 0 0.0 0.0 0.00 0.00 0.00 80 1005.1
20260504000004 -2 0 0.0 0.0 0.00 0.00 0.00 80 1005.2
20260503235404 -2 0 0.0 0.0 0.00 0.00 0.00 80 1005.1
20260503234504 -2 307 0.0 1.6 0.00 0.00 0.00 81 1005.1
20260503233604 -2 307 0.0 3.2 0.00 0.00 0.00 80 1005.2
20260503232704 -2 307 0.0 3.2 0.00 0.00 0.00 80 1005.2
20260503231804 -2 0 0.0 0.0 0.00 0.00 0.00 81 1005.2
20260503230904 -2 0 0.0 0.0 0.00 0.00 0.00 82 1005.1
20260503230004 -2 0 0.0 0.0 0.00 0.00 0.00 81 1005.2
20260503225425 -2 0 0.0 0.0 0.00 0.00 0.00 81 1005.1
20260503224525 -2 0 0.0 0.0 0.00 0.00 0.00 79 1005.2
20260503223625 -2 0 0.0 0.0 0.00 0.00 0.00 80 1005.2
20260503222704 -2 0 0.0 0.0 0.00 0.00 0.00 79 1005.2
20260503221804 -1 0 0.0 0.0 0.00 0.00 0.00 77 1005.3
20260503220925 -1 0 0.0 0.0 0.00 0.00 0.00 79 1005.3
20260503220025 -1 307 0.0 1.6 0.00 0.00 0.00 79 1005.3
20260503215425 -1 307 1.6 3.2 0.00 0.00 0.00 79 1005.3
20260503214504 -1 307 1.6 3.2 0.00 0.00 0.00 79 1005.3
20260503213625 -1 307 1.6 3.2 0.00 0.00 0.00 78 1005.3
20260503212704 -1 307 1.6 3.2 0.00 0.00 0.00 77 1005.3
20260503211804 -1 307 1.6 3.2 0.00 0.00 0.00 77 1005.4
20260503210904 -1 307 3.2 4.8 0.00 0.00 0.00 76 1005.5
20260503210005 -1 307 3.2 4.8 0.00 0.00 0.00 75 1005.6
20260503205404 0 308 4.8 9.7 0.00 0.00 0.00 74 1005.6
20260503204504 -1 320 4.8 8.0 0.00 0.00 0.00 75 1005.5
20260503203625 -1 320 4.8 8.0 0.00 0.00 0.00 75 1005.6
20260503202704 -1 320 4.8 6.4 0.00 0.00 0.00 74 1005.7
20260503201804 0 320 4.8 6.4 0.00 0.00 0.00 71 1005.6
20260503200904 0 320 4.8 8.0 0.00 0.00 0.00 69 1005.7
20260503200025 0 313 6.4 9.7 0.00 0.00 0.00 69 1005.7
20260503195404 0 317 4.8 8.0 0.00 0.00 0.00 70 1005.7
20260503194504 0 317 4.8 8.0 0.00 0.00 0.00 71 1005.7
20260503193604 0 317 4.8 8.0 0.00 0.00 0.00 70 1005.7
20260503192704 0 317 4.8 8.0 0.00 0.00 0.00 70 1005.7
20260503191804 0 317 4.8 8.0 0.00 0.00 0.00 70 1005.7
20260503190904 0 317 3.2 4.8 0.00 0.00 0.00 69 1005.6
20260503190025 1 317 3.2 6.4 0.00 0.00 0.00 66 1005.6
20260503185404 1 317 3.2 6.4 0.00 0.00 0.00 66 1005.6
20260503184504 1 317 3.2 6.4 0.00 0.00 0.00 65 1005.6
20260503183604 1 317 1.6 4.8 0.00 0.00 0.00 65 1005.6
20260503182704 2 317 1.6 4.8 0.00 0.00 0.00 62 1005.5
20260503181804 3 317 3.2 6.4 0.00 0.00 0.00 60 1005.5
20260503180904 3 331 4.8 8.0 0.00 0.00 0.00 56 1005.5
20260503180004 4 325 4.8 6.4 0.00 0.00 0.00 54 1005.4
20260503175404 5 312 4.8 6.4 0.00 0.00 0.00 51 1005.3
20260503174504 5 312 4.8 6.4 0.00 0.00 0.00 50 1005.4
20260503173625 6 312 6.4 14.5 0.00 0.00 0.00 48 1005.3
20260503172704 6 325 9.7 16.1 0.00 0.00 0.00 46 1005.3
20260503171804 7 316 9.7 19.3 0.00 0.00 0.00 45 1005.2
20260503170904 7 302 11.3 22.5 0.00 0.00 0.00 45 1005.2
20260503150904 7 311 14.5 25.7 0.00 0.00 0.00 41 1004.9
20260503130925 8 308 17.7 30.6 0.00 0.00 0.00 46 1004.5